Tracking 17856 objects as of 28-September-2016
HD Live streaming from Space Station
objects crossing your sky now

SJ-7

Track SJ-7 now!
10-day predictions
SJ-7 is classified as:


NORAD ID: 28737
Int'l Code: 2005-024A
Perigee: 565.5 km
Apogee: 612.6 km
Inclination: 97.7 °
Period: 96.3 minutes
Semi major axis: 6960 km
RCS: 3.0015 m2 (large)
Launch date: July 5, 2005
Source: People's Republic of China (PRC)
Launch site: Jiuquan Satellite Launch Center, China (JSC)
Your satellite tracking list
Your tracking list is empty





NASA's NSSDC Master Catalog

Two Line Element Set (TLE):
1 28737U 05024A   16270.85616056  .00001088  00000-0  10332-3 0  9990
2 28737  97.6618 277.8127 0033813 110.3656 250.1194 14.95139450615601
Source of the keplerian elements: AFSPC

N2YO: 502